"Pseudo-MPEC" for C11EQD5
Created 2025 Feb 6 17:31:04 UT using Find_Orb
Click here for an explanation of pseudo-MPECs
Astrometry:
C11EQD5* C2025 02 04.40229409 46 33.654+47 39 42.44 ~24AH 22.09GVNEOCPV00
C11EQD5 C2025 02 04.40417109 46 33.492+47 39 44.39 ~24AV 22.06GVNEOCPV00
C11EQD5 C2025 02 04.40790309 46 33.172+47 39 48.10 ~24AH 21.43GVNEOCPV00
C11EQD5 C2025 02 04.40976609 46 32.992+47 39 49.97 ~24AV 22.08GVNEOCPV00
C11EQD5 C2025 02 04.41350309 46 32.668+47 39 53.71 ~24AH 21.84GVNEOCPV00
C11EQD5 C2025 02 04.41536909 46 32.473+47 39 55.73 ~24AV 21.72GVNEOCPV00
C11EQD5 C2025 02 04.41910809 46 32.149+47 39 59.08 ~24AH 21.93GVNEOCPV00
C11EQD5 C2025 02 04.42097809 46 31.980+47 40 01.13 ~24AV 22.14GVNEOCPV00
C11EQD5 KC2025 02 05.32001009 45 14.749+47 54 50.80 ~258V 21.74GVNEOCPV06
C11EQD5 KC2025 02 05.32399809 45 14.396+47 54 54.68 ~258V 21.57GVNEOCPV06
C11EQD5 KC2025 02 05.32798809 45 14.036+47 54 58.64 ~258V VNEOCPV06
C11EQD5 KC2025 02 06.48790709 43 32.002+48 13 17.87 ~26CH 21.91GVNEOCPV06
C11EQD5 KC2025 02 06.49189509 43 31.663+48 13 21.54 ~26CH 21.84GVNEOCPV06
C11EQD5 KC2025 02 06.49588509 43 31.264+48 13 25.00 ~26CH 21.81GVNEOCPV06
C11EQD5 KC2025 02 06.49987509 43 30.940+48 13 28.63 ~26CH 21.85GVNEOCPV06
Station data:
(V00) Kitt Peak-Bok (N31.963125 W111.600190) US/Arizona. Observers T. A.
Pruyne, B. M. Africano, E. J. Christensen, G. A. Farneth, D. C. Fuls, A.
R. Gibbs, A. D. Grauer, H. Gröller, J. A. Johnson, R. A. Kowalski, S. M.
Larson, G. J. Leonard, D. Rankin, R. L. Seaman, F. C. Shelly, K. W.
Wierzchoś. 2.25-m reflector + 4x4K mosaic CCD.
(V06) Catalina Sky Survey-Kuiper (N32.416871 W110.732550) US/Arizona.
Observers T. A. Pruyne, B. M. Africano, E. J. Christensen, G. A. Farneth,
D. C. Fuls, A. R. Gibbs, A. D. Grauer, H. Gröller, J. A. Johnson, R. A.
Kowalski, S. M. Larson, G. J. Leonard, D. Rankin, R. L. Seaman, F. C.
Shelly, K. W. Wierzchoś. 1.55-m reflector + CCD.
Orbital elements: C11EQD5
Perihelion 2024 May 20.83240 +/- 11.2 TT = 19:58:39 (JD 2460451.33240)
Epoch 2025 Feb 6.0 TT = JDT 2460712.5 Earth MOID: 0.7483 AutoNEOCP
M 101.03542616 +/- 5.0 (J2000 ecliptic)
n 0.38686049 +/- 0.00478 Peri. 290.49650 +/- 3.0
a 1.86537631 +/- 0.0153 Node 92.74583 +/- 0.7
e 0.1156724 +/- 0.015 Incl. 24.09622 +/- 0.48
P 2.548/930.550d H 19.80 G 0.15 U 9.2
q 1.64960361 +/- 0.0166 Q 2.08114902 +/- 0.0442
From 15 observations 2025 Feb. 4-6; mean residual 0".09
Residuals in arcseconds: 250204 V00 .10- .10- 250204 V00 .14- .21+ 250205 V06 .07+ .04+ 250204 V00 .03- .02- 250204 V00 .01- .15- 250206 V06 .06- .01- 250204 V00 .14+ .02- 250204 V00 .02- .05+ 250206 V06 .16+ .07+ 250204 V00 .01+ .00 250205 V06 .09- .02- 250206 V06 .23- .05- 250204 V00 .14+ .04+ 250205 V06 .02+ .03- 250206 V06 .13+ .01- Ephemerides (geocentric): Date (UTC) HH RA Dec delta r elong mag " sig PA ---- -------- ------------ ------------ ------ ------ ----- --- -------- 2025 02 06 18 09 43 09.537 +48 17 19.64 1.0281 1.9308 146.9 22.2 .125 174 2025 02 06 19 09 43 05.864 +48 17 57.83 1.0282 1.9308 146.9 22.2 .139 178 2025 02 06 20 09 43 02.191 +48 18 35.95 1.0283 1.9309 146.8 22.2 .154 1 2025 02 06 21 09 42 58.516 +48 19 14.01 1.0285 1.9309 146.8 22.2 .171 4 2025 02 06 22 09 42 54.840 +48 19 51.99 1.0286 1.9310 146.8 22.2 .188 6 2025 02 06 23 09 42 51.163 +48 20 29.91 1.0288 1.9310 146.8 22.2 .206 8 2025 02 07 00 09 42 47.484 +48 21 07.76 1.0289 1.9311 146.8 22.2 .224 10 2025 02 07 01 09 42 43.804 +48 21 45.54 1.0290 1.9312 146.8 22.2 .244 12 2025 02 07 02 09 42 40.123 +48 22 23.26 1.0292 1.9312 146.7 22.2 .264 13 2025 02 07 03 09 42 36.441 +48 23 00.91 1.0293 1.9313 146.7 22.2 .284 14 2025 02 07 04 09 42 32.757 +48 23 38.49 1.0295 1.9313 146.7 22.2 .306 15 2025 02 07 05 09 42 29.073 +48 24 16.00 1.0296 1.9314 146.7 22.2 .328 16 2025 02 07 06 09 42 25.387 +48 24 53.45 1.0298 1.9314 146.7 22.2 .350 17 2025 02 07 07 09 42 21.700 +48 25 30.82 1.0299 1.9315 146.7 22.2 .374 17 2025 02 07 08 09 42 18.011 +48 26 08.13 1.0301 1.9315 146.6 22.2 .397 18 2025 02 07 09 09 42 14.322 +48 26 45.38 1.0302 1.9316 146.6 22.2 .422 18 2025 02 07 10 09 42 10.632 +48 27 22.55 1.0303 1.9317 146.6 22.2 .447 19 2025 02 07 11 09 42 06.940 +48 27 59.66 1.0305 1.9317 146.6 22.2 .472 19 2025 02 07 12 09 42 03.247 +48 28 36.69 1.0306 1.9318 146.6 22.2 .499 20 2025 02 07 13 09 41 59.554 +48 29 13.66 1.0308 1.9318 146.5 22.2 .525 20 2025 02 07 14 09 41 55.859 +48 29 50.57 1.0309 1.9319 146.5 22.2 .553 21 2025 02 07 15 09 41 52.163 +48 30 27.40 1.0311 1.9319 146.5 22.2 .581 21 2025 02 07 16 09 41 48.466 +48 31 04.17 1.0312 1.9320 146.5 22.2 .609 21 2025 02 07 17 09 41 44.768 +48 31 40.87 1.0314 1.9320 146.5 22.2 .638 21 2025 02 07 18 09 41 41.069 +48 32 17.50 1.0315 1.9321 146.5 22.2 .668 22 2025 02 07 19 09 41 37.369 +48 32 54.06 1.0317 1.9322 146.4 22.2 .698 22 2025 02 07 20 09 41 33.668 +48 33 30.55 1.0318 1.9322 146.4 22.2 .729 22 2025 02 07 21 09 41 29.966 +48 34 06.98 1.0320 1.9323 146.4 22.2 .761 22 2025 02 07 22 09 41 26.263 +48 34 43.33 1.0321 1.9323 146.4 22.2 .793 22 2025 02 07 23 09 41 22.559 +48 35 19.62 1.0323 1.9324 146.4 22.2 .825 22 2025 02 08 00 09 41 18.854 +48 35 55.84 1.0324 1.9324 146.3 22.2 .858 23 2025 02 08 01 09 41 15.148 +48 36 31.99 1.0326 1.9325 146.3 22.2 .892 23 2025 02 08 02 09 41 11.441 +48 37 08.08 1.0327 1.9325 146.3 22.2 .926 23 2025 02 08 03 09 41 07.733 +48 37 44.09 1.0329 1.9326 146.3 22.2 .961 23 2025 02 08 04 09 41 04.025 +48 38 20.04 1.0330 1.9327 146.3 22.2 1.00 23 2025 02 08 05 09 41 00.316 +48 38 55.92 1.0332 1.9327 146.2 22.2 1.03 23 2025 02 08 06 09 40 56.605 +48 39 31.73 1.0333 1.9328 146.2 22.2 1.07 23 2025 02 08 07 09 40 52.894 +48 40 07.47 1.0335 1.9328 146.2 22.2 1.11 23 2025 02 08 08 09 40 49.182 +48 40 43.14 1.0336 1.9329 146.2 22.2 1.14 23 2025 02 08 09 09 40 45.469 +48 41 18.74 1.0338 1.9329 146.2 22.2 1.18 23 2025 02 08 10 09 40 41.756 +48 41 54.28 1.0339 1.9330 146.2 22.2 1.22 24 2025 02 08 11 09 40 38.041 +48 42 29.75 1.0341 1.9330 146.1 22.2 1.26 24 2025 02 08 12 09 40 34.326 +48 43 05.14 1.0343 1.9331 146.1 22.2 1.30 24 2025 02 08 13 09 40 30.610 +48 43 40.47 1.0344 1.9332 146.1 22.2 1.34 24 2025 02 08 14 09 40 26.893 +48 44 15.73 1.0346 1.9332 146.1 22.2 1.38 24 2025 02 08 15 09 40 23.176 +48 44 50.93 1.0347 1.9333 146.1 22.2 1.42 24 2025 02 08 16 09 40 19.458 +48 45 26.05 1.0349 1.9333 146.0 22.2 1.47 24 2025 02 08 17 09 40 15.739 +48 46 01.10 1.0350 1.9334 146.0 22.2 1.51 24